Weather History for Mansfield, OH

Change the Weather History Date:

Tuesday, March 25, 2014

  Actual Average Record
Temperature  
Mean Temperature 25 °F 40 °F  
Max Temperature 34 °F 50 °F 80 °F (1929)
Min Temperature 16 °F 31 °F -2 °F (1974)
Degree Days  
Heating Degree Days 40 25  
Month to date heating degree days 854 727  
Since 1 July heating degree days 5898 5352  
Cooling Degree Days 0 0  
Month to date cooling degree days 0 0  
Year to date cooling degree days 0 0  
Moisture  
Dew Point 18 °F    
Average Humidity 68    
Maximum Humidity 92    
Minimum Humidity 43    
Precipitation  
Precipitation 0.08 in 0.12 in 1.36 in (1988)
Month to date precipitation 1.34 2.62  
Year to date precipitation 5.67 7.88  
Snow  
Snow 0.00 in 0.20 in - ()
Month to date snowfall 6.5 6.9  
Since 1 July snowfall 59.3 44.8  
Snow Depth 0.00 in    
Sea Level Pressure  
Sea Level Pressure 29.98 in    
Wind  
Wind Speed 9 mph (West)    
Max Wind Speed 20 mph    
Max Gust Speed 25 mph    
Visibility 5 miles    
Events Fog , Snow    
T = Trace of Precipitation, MM = Missing Value Source: NWS Daily Summary

Daily Weather History Graph

Daily Weather History Graph

Search for Another Location

Airport:

Trip Planner

Search our weather history database for the weather conditions in past years. The results will help you decide how hot, cold, wet, or windy it might be!

Date:

Astronomy

Mar. 25, 2014 Rise Set
Actual Time 7:25 AM EDT 7:47 PM EDT
Civil Twilight 6:57 AM EDT 8:14 PM EDT
Nautical Twilight 6:25 AM EDT 8:47 PM EDT
Astronomical Twilight 5:52 AM EDT 9:20 PM EDT
Moon 3:47 AM EDT (3/25) 2:15 PM EDT (3/25)
Length of Visible Light 13h 17m
Length of Day
12h 22m
Waning Crescent, 32% of the Moon is Illuminated
Mar 25
Waning Crescent
Mar 30
New
Apr 7
First Quarter
Apr 15
Full
Apr 22
Last Quarter

Hourly Weather History & Observations

Time (EDT) Temp. Windchill Dew Point Humidity Pressure Visibility Wind Dir Wind Speed Gust Speed Precip Events Conditions
12:52 AM 24.1 °F 18.2 °F 14.0 °F 65% 30.11 in 10.0 mi West 4.6 mph - N/A   Clear
1:52 AM 24.1 °F 19.7 °F 14.0 °F 65% 30.10 in 10.0 mi WNW 3.5 mph - N/A   Clear
2:52 AM 21.0 °F 16.2 °F 14.0 °F 74% 30.08 in 10.0 mi NW 3.5 mph - N/A   Clear
3:52 AM 21.9 °F - 14.0 °F 72% 30.06 in 10.0 mi Calm Calm - N/A   Clear
4:52 AM 19.0 °F - 12.9 °F 77% 30.04 in 10.0 mi Calm Calm - N/A   Clear
5:52 AM 18.0 °F 12.7 °F 12.0 °F 78% 30.02 in 10.0 mi SSE 3.5 mph - N/A   Clear
6:52 AM 18.0 °F 11.1 °F 12.0 °F 78% 30.01 in 10.0 mi SSE 4.6 mph - N/A   Clear
7:52 AM 19.0 °F 10.0 °F 12.9 °F 77% 30.01 in 7.0 mi SSE 6.9 mph - N/A   Clear
8:52 AM 23.0 °F 13.1 °F 15.1 °F 72% 30.01 in 10.0 mi South 9.2 mph - N/A   Clear
9:52 AM 27.0 °F 17.3 °F 14.0 °F 58% 29.99 in 10.0 mi SSE 10.4 mph - N/A   Clear
10:52 AM 30.0 °F 22.4 °F 12.0 °F 47% 29.99 in 10.0 mi South 8.1 mph - N/A   Partly Cloudy
11:52 AM 32.0 °F 23.6 °F 12.0 °F 44% 29.97 in 10.0 mi West 10.4 mph 18.4 mph N/A   Partly Cloudy
12:52 PM 32.0 °F 24.2 °F 14.0 °F 48% 29.96 in 10.0 mi WSW 9.2 mph - N/A   Overcast
1:52 PM 34.0 °F 26.0 °F 19.0 °F 54% 29.94 in 10.0 mi SW 10.4 mph - N/A   Overcast
2:45 PM 33.8 °F 25.8 °F 21.2 °F 60% 29.89 in 4.0 mi SSW 10.4 mph - 0.00 in Snow Light Snow
2:52 PM 33.1 °F 24.4 °F 21.9 °F 64% 29.94 in 7.0 mi WSW 11.5 mph - 0.00 in Snow Light Snow
3:17 PM 30.2 °F 19.3 °F 23.0 °F 75% 29.89 in 1.2 mi West 15.0 mph 21.9 mph 0.00 in Snow Light Snow
3:20 PM 28.4 °F 17.0 °F 24.8 °F 86% 29.90 in 0.2 mi West 15.0 mph 21.9 mph 0.00 in Snow Heavy Snow
3:24 PM 28.4 °F 19.7 °F 24.8 °F 86% 29.90 in 0.2 mi WSW 9.2 mph 21.9 mph 0.00 in Fog , Snow Heavy Snow
3:41 PM 24.8 °F 12.4 °F 23.0 °F 93% 29.91 in 0.2 mi NW 15.0 mph - 0.03 in Fog , Snow Heavy Snow
3:48 PM 24.8 °F 11.5 °F 21.2 °F 86% 29.91 in 0.2 mi NW 17.3 mph - 0.04 in Fog , Snow Heavy Snow
3:52 PM 25.0 °F 13.1 °F 23.0 °F 92% 29.97 in 0.2 mi NW 13.8 mph 21.9 mph 0.04 in Fog , Snow Heavy Snow
3:57 PM 26.6 °F 15.2 °F 21.2 °F 80% 29.91 in 2.0 mi NW 13.8 mph 19.6 mph 0.03 in Snow Light Snow
4:12 PM 26.6 °F 16.8 °F 21.2 °F 80% 29.92 in 0.8 mi WNW 10.4 mph - 0.03 in Snow Light Snow
4:16 PM 26.6 °F 17.5 °F 23.0 °F 86% 29.92 in 1.0 mi WNW 9.2 mph - 0.03 in Snow Light Snow
4:28 PM 26.6 °F 15.7 °F 21.2 °F 80% 29.92 in 3.0 mi WNW 12.7 mph 18.4 mph 0.03 in Snow Light Snow
4:36 PM 26.6 °F 16.2 °F 21.2 °F 80% 29.92 in 2.5 mi WNW 11.5 mph 18.4 mph 0.03 in Snow Light Snow
4:44 PM 26.6 °F 16.2 °F 21.2 °F 80% 29.92 in 1.0 mi NW 11.5 mph - 0.03 in Snow Light Snow
4:52 PM 27.0 °F 14.3 °F 21.0 °F 78% 29.98 in 1.2 mi NW 17.3 mph 21.9 mph 0.03 in Snow Light Snow
5:07 PM 26.6 °F 17.5 °F 21.2 °F 80% 29.93 in 3.0 mi WNW 9.2 mph - 0.00 in Snow Light Snow
5:52 PM 27.0 °F 14.7 °F 19.9 °F 75% 29.99 in 3.0 mi NW 16.1 mph - 0.00 in   Haze
5:55 PM 26.6 °F 13.4 °F 19.4 °F 74% 29.94 in 1.5 mi NW 18.4 mph - 0.00 in Snow Light Snow
6:04 PM 24.8 °F 13.4 °F 21.2 °F 86% 29.94 in 0.5 mi WNW 12.7 mph 21.9 mph 0.00 in Fog , Snow Snow
6:12 PM 26.6 °F 16.8 °F 21.2 °F 80% 29.95 in 4.0 mi NW 10.4 mph 17.3 mph 0.01 in Snow Light Snow
6:52 PM 26.1 °F 14.0 °F 17.1 °F 69% 30.02 in 4.0 mi WNW 15.0 mph 20.7 mph 0.01 in Snow Light Snow
6:55 PM 26.6 °F 14.3 °F 17.6 °F 69% 29.97 in 1.8 mi WNW 16.1 mph 21.9 mph 0.00 in Snow Light Snow
7:06 PM 24.8 °F 14.0 °F 19.4 °F 80% 29.97 in 0.8 mi NW 11.5 mph - 0.00 in Snow Light Snow
7:12 PM 24.8 °F 14.0 °F 19.4 °F 80% 29.97 in 2.0 mi WNW 11.5 mph - 0.00 in Snow Light Snow
7:19 PM 26.6 °F 14.7 °F 17.6 °F 69% 29.98 in 9.0 mi WNW 15.0 mph 24.2 mph 0.00 in   Overcast
7:24 PM 24.8 °F 12.9 °F 19.4 °F 80% 29.98 in 0.8 mi WNW 13.8 mph 24.2 mph 0.00 in Snow Light Snow
7:27 PM 24.8 °F 13.4 °F 19.4 °F 80% 29.98 in 0.2 mi West 12.7 mph 24.2 mph 0.00 in Fog , Snow Heavy Snow
7:35 PM 24.8 °F 14.6 °F 21.2 °F 86% 29.98 in 0.5 mi WNW 10.4 mph - 0.00 in Fog , Snow Light Snow
7:38 PM 24.8 °F 17.9 °F 19.4 °F 80% 29.98 in 1.2 mi WNW 5.8 mph - 0.00 in Snow Light Snow
7:41 PM 24.8 °F 17.9 °F 19.4 °F 80% 29.98 in 3.0 mi Variable 5.8 mph - 0.00 in Snow Light Snow
7:52 PM 24.1 °F 16.0 °F 17.1 °F 75% 30.05 in 10.0 mi West 6.9 mph - 0.00 in   Mostly Cloudy
8:52 PM 24.1 °F 14.4 °F 15.1 °F 69% 30.07 in 10.0 mi West 9.2 mph 17.3 mph 0.00 in   Mostly Cloudy
9:52 PM 21.9 °F 12.5 °F 10.9 °F 63% 30.09 in 10.0 mi WNW 8.1 mph 17.3 mph 0.00 in   Scattered Clouds
10:52 PM 21.0 °F 9.3 °F 12.0 °F 68% 30.12 in 10.0 mi WNW 11.5 mph 17.3 mph N/A   Scattered Clouds
11:52 PM 19.9 °F 7.3 °F 10.0 °F 65% - 10.0 mi WNW 12.7 mph 21.9 mph N/A   Mostly Cloudy